[[{"header":{"parameterUnit":"m.s-1","parameterCategory":1,"la1":30.2991,"la2":30.254,"lo1":-89.0895,"lo2":-89.0444,"dy":0.0017,"dx":0.0017,"nx":28,"ny":28,"refTime":"2024-07-21T21:00:00:Z","depth":0,"parameterNumber":2,"parameterNumberName":"U-component_of_WINDS"},"data":[0,0,0,0,0,0,0,0,0,0,0,0,0,0,0,0,0,0,0,0,0,0,0,0,0,0,0,0,0,0,0,0,0,0,0,0,0,0,0,0,0,0,0,0,0,0,0,0,0,0,0,0,0,0,0,0,0,0,0.2376,0.2376,0,0.2366,0.2366,0.2366,0.234,0.234,0.2339,0.2339,0.2329,0.2329,0.233,0,0,0,0,0,0,0,0,0,0,0,0,0,0.2373,0.2374,0.2376,0.2376,0.2375,0.2366,0.2366,0.2366,0.234,0.234,0.2339,0.2338,0.2329,0.2329,0.233,0,0,0,0,0,0,0,0,0,0,0,0,0,0.237,0.2374,0.2376,0.2362,0.236,0.2366,0.2366,0.2365,0.234,0.234,0.2339,0.2338,0.2329,0.2329,0.233,0.2348,0,0,0.2331,0.2331,0,0,0,0,0,0,0,0,0.237,0.237,0.2364,0.2363,0.2361,0.2353,0.2361,0.236,0.2341,0.2348,0.2339,0.2338,0.2338,0.2338,0.2338,0.2348,0.2347,0.2331,0.2331,0.2331,0.2331,0,0,0,0,0,0,0,0.2371,0.2371,0.2372,0.2364,0.2362,0.2356,0.2355,0.2361,0.2348,0.2347,0.2345,0.2345,0.2337,0.2337,0.2337,0.2347,0.2331,0.2331,0.2332,0.2332,0.2372,0.2373,0,0,0,0,0,0,0.2373,0.2371,0.2372,0.2371,0.2364,0.2357,0.2355,0.2357,0.2348,0.2345,0.2345,0.2343,0.2337,0.2337,0.2337,0.2358,0.2331,0.2332,0.2332,0.2372,0.2373,0.2374,0,0,0,0,0,0,0.2373,0.2373,0.2372,0.2371,0.237,0.2358,0.236,0.2357,0.2357,0.2346,0.2344,0.2348,0.2336,0.2336,0.2346,0.2357,0.2332,0.2332,0.2371,0.2372,0.2373,0.24,0,0,0,0,0,0,0.2373,0.2373,0.238,0.2371,0.237,0.2381,0.236,0.2357,0.2358,0.2355,0.2348,0.2346,0.2336,0.2345,0.2346,0.2357,0.2333,0.237,0.2371,0.2373,0.2398,0.2402,0.2405,0,0,0,0,0,0.2373,0.2388,0.238,0.2381,0.2378,0.2382,0.2382,0.237,0.2359,0.2365,0.2358,0.2346,0.2356,0.2346,0.2347,0.2358,0.2369,0.2371,0.2373,0.2396,0.2401,0.2405,0,0,0,0,0,0,0.2399,0.2386,0.2378,0.2391,0.2388,0.2378,0.2386,0.2375,0.2375,0.2373,0.2358,0.2357,0.2368,0.2364,0.2354,0.2376,0.236,0.2362,0.2378,0.2382,0.2386,0.2386,0.2333,0,0,0,0,0,0.2406,0.241,0.2399,0.2411,0.241,0.2398,0.2399,0.239,0.2387,0.2385,0.2379,0.2376,0.2378,0.238,0.2382,0.2397,0.2395,0.2405,0.2409,0.2412,0.2414,0.2422,0.2426,0.238,0.238,0.238,0,0,0.2421,0.2414,0.2418,0.2416,0.2413,0.2417,0.2397,0.2403,0.2406,0.2386,0.2394,0.239,0.2386,0.2398,0.2403,0.2395,0.2427,0.2415,0.2417,0.2417,0.2424,0.2429,0.2433,0.2381,0.2381,0.2381,0,0,0.245,0.2445,0.2455,0.2452,0.2447,0.2439,0.2442,0.2434,0.243,0.2438,0.2423,0.2427,0.2431,0.2429,0.2428,0.2457,0.2445,0.2458,0.2477,0.2485,0.2488,0.2492,0.2502,0.2505,0.246,0.246,0.246,0,0.2469,0.2474,0.2461,0.2468,0.2467,0.245,0.2459,0.2457,0.2453,0.2454,0.2445,0.245,0.2446,0.2457,0.2465,0.2465,0.2467,0.2458,0.2489,0.2492,0.2495,0.2504,0.2508,0.2462,0.2461,0.2461,0.2461,0,0.2498,0.2502,0.251,0.2507,0.2507,0.2516,0.2504,0.2507,0.2498,0.2491,0.25,0.2494,0.2495,0.2497,0.2488,0.2507,0.2502,0.2492,0.2475,0.2501,0.2509,0.2513,0.2464,0.2463,0.2463,0.2462,0,0,0.2542,0.2531,0.2534,0.2533,0.2526,0.2529,0.2537,0.2537,0.2539,0.2537,0.2543,0.2547,0.2537,0.2537,0.2528,0.2535,0.2558,0.2523,0.2523,0.2529,0.2578,0.2586,0.259,0.255,0.2551,0.2552,0.2578,0,0.2569,0.258,0.2569,0.2583,0.2587,0.2571,0.2577,0.2574,0.2568,0.2571,0.2565,0.2568,0.2554,0.2554,0.256,0.2554,0.2567,0.2552,0.2556,0.2556,0.2556,0.2595,0.2603,0.2628,0.2582,0.2582,0.2582,0,0.2601,0.2601,0.2615,0.2608,0.2609,0.2615,0.2614,0.2617,0.2613,0.2609,0.2608,0.2598,0.2605,0.259,0.2599,0.2589,0.259,0.2587,0.2588,0.2587,0.257,0.2595,0.2636,0.264,0.2588,0.2587,0.2587,0,0.2632,0.2634,0.2643,0.2642,0.2634,0.2639,0.2636,0.2631,0.2632,0.2632,0.2632,0.2633,0.2633,0.2634,0.2623,0.2613,0.2634,0.2618,0.2631,0.2631,0.2635,0.2635,0.2677,0.2637,0.2637,0.2637,0.2637,0,0.2662,0.2672,0.2657,0.2662,0.2672,0.266,0.267,0.2665,0.2662,0.2666,0.2652,0.2657,0.2644,0.2647,0.2639,0.2648,0.2649,0.2645,0.2643,0.2646,0.2646,0.2646,0.2643,0.2638,0.2638,0.2637,0.2637,0,0.2697,0.2688,0.2696,0.2688,0.2686,0.2694,0.2687,0.2692,0.2685,0.2691,0.2692,0.2682,0.2685,0.2675,0.2677,0.2671,0.2684,0.268,0.2686,0.2684,0.2696,0.2695,0.2739,0.2744,0.2702,0.2702,0.2702,0,0.2717,0.2724,0.2716,0.2718,0.2716,0.2719,0.272,0.2708,0.2709,0.2706,0.2711,0.2713,0.2714,0.272,0.2713,0.2714,0.2709,0.2724,0.2709,0.2712,0.2708,0.2708,0.2708,0.2727,0.2728,0.2728,0.2728,0,0.2753,0.2748,0.275,0.275,0.2751,0.275,0.2749,0.2751,0.2739,0.2741,0.2744,0.2745,0.2746,0.2749,0.2748,0.2745,0.2735,0.2733,0.2736,0.2739,0.2742,0.274,0.2693,0.2732,0.2732,0.2732,0.2731,0.2731,0.2781,0.2786,0.2781,0.2783,0.2781,0.278,0.2784,0.2779,0.2781,0.2781,0.2774,0.2779,0.2775,0.2774,0.2772,0.2775,0.2768,0.2772,0.2773,0.2774,0.2776,0.2742,0.2775,0.2775,0.2775,0.2775,0.2775,0,0.2815,0.2812,0.2814,0.2812,0.2814,0.2804,0.2802,0.2805,0.2809,0.2806,0.2807,0.2811,0.2813,0.2806,0.2808,0.2812,0.2807,0.2812,0.2811,0.2811,0.2783,0.278,0.2816,0.2816,0.2816,0.2816,0.2816,0.2816,0.2833,0.2842,0.2836,0.2844,0.284,0.2844,0.2844,0.2843,0.2841,0.2845,0.2847,0.2843,0.2839,0.284,0.2841,0.2839,0.284,0.2847,0.2844,0.2817,0.2813,0.2809,0.2806,0.2848,0.2848,0.2871,0.2872,0.2872]},{"header":{"parameterUnit":"m.s-1","parameterCategory":1,"la1":30.2991,"la2":30.254,"lo1":-89.0895,"lo2":-89.0444,"dy":0.0017,"dx":0.0017,"nx":28,"ny":28,"refTime":"2024-07-21T21:00:00:Z","depth":0,"parameterNumber":3,"parameterNumberName":"V-component_of_WINDS"},"data":[0,0,0,0,0,0,0,0,0,0,0,0,0,0,0,0,0,0,0,0,0,0,0,0,0,0,0,0,0,0,0,0,0,0,0,0,0,0,0,0,0,0,0,0,0,0,0,0,0,0,0,0,0,0,0,0,0,0,2.8135,2.8136,0,2.8263,2.8265,2.8266,2.8336,2.8336,2.8336,2.8336,2.8465,2.8468,2.8472,0,0,0,0,0,0,0,0,0,0,0,0,0,2.7947,2.795,2.8135,2.8137,2.8138,2.8263,2.8265,2.8267,2.8336,2.8336,2.8336,2.8337,2.8464,2.8468,2.8472,0,0,0,0,0,0,0,0,0,0,0,0,0,2.8047,2.7951,2.8135,2.8188,2.8194,2.8263,2.8265,2.8267,2.8336,2.8336,2.8336,2.8337,2.8463,2.8468,2.8473,2.8498,0,0,2.8487,2.849,0,0,0,0,0,0,0,0,2.8042,2.8054,2.8178,2.8184,2.8191,2.8284,2.8246,2.8344,2.8336,2.8282,2.8336,2.8337,2.8405,2.8414,2.8438,2.8504,2.8509,2.8488,2.8491,2.8493,2.8494,0,0,0,0,0,0,0,2.8035,2.8049,2.8186,2.818,2.8188,2.8204,2.8219,2.8265,2.834,2.8287,2.8292,2.8306,2.8408,2.8433,2.8441,2.8511,2.8488,2.8492,2.8495,2.8497,2.8604,2.8604,0,0,0,0,0,0,2.8019,2.8043,2.8182,2.819,2.8116,2.8208,2.8224,2.8254,2.834,2.8353,2.8306,2.8309,2.8424,2.8435,2.8446,2.8481,2.8493,2.8498,2.85,2.8604,2.8604,2.8603,0,0,0,0,0,0,2.8015,2.8031,2.8176,2.8118,2.8138,2.8211,2.8244,2.8256,2.8281,2.8355,2.8368,2.8318,2.8425,2.8439,2.8484,2.8486,2.85,2.8504,2.8604,2.8604,2.8604,2.8551,0,0,0,0,0,0,2.8009,2.8029,2.804,2.8117,2.814,2.8213,2.8244,2.8259,2.829,2.8295,2.8369,2.8381,2.8426,2.8477,2.8489,2.8493,2.8508,2.8604,2.8604,2.8604,2.8553,2.8549,2.8545,0,0,0,0,0,2.8003,2.802,2.804,2.8057,2.8156,2.8213,2.8226,2.8278,2.829,2.8301,2.8348,2.8379,2.8484,2.8481,2.8495,2.8501,2.8604,2.8604,2.8604,2.8554,2.855,2.8546,0,0,0,0,0,0,2.794,2.8031,2.8055,2.8097,2.8147,2.8225,2.8241,2.8272,2.8318,2.8321,2.8383,2.8399,2.8438,2.8474,2.8469,2.853,2.8547,2.855,2.8505,2.8501,2.8497,2.8488,2.8512,0,0,0,0,0,2.7931,2.7971,2.8048,2.8078,2.8102,2.8167,2.8194,2.823,2.8283,2.8304,2.8355,2.8405,2.8449,2.8477,2.8522,2.8558,2.8575,2.8569,2.8566,2.8562,2.8564,2.8585,2.8583,2.8603,2.8603,2.8603,0,0,2.7913,2.7968,2.7989,2.8067,2.811,2.8149,2.8184,2.8224,2.8254,2.831,2.8356,2.8395,2.8455,2.8495,2.8516,2.8527,2.8562,2.8562,2.8559,2.8562,2.8585,2.8583,2.8581,2.8602,2.8603,2.8603,0,0,2.7901,2.7946,2.7976,2.8018,2.8083,2.8126,2.8133,2.8206,2.8234,2.8282,2.8325,2.836,2.8436,2.8477,2.8507,2.851,2.854,2.8522,2.8504,2.8524,2.8522,2.8521,2.8522,2.8521,2.8524,2.8524,2.8524,0,2.787,2.7932,2.7988,2.8025,2.8058,2.8112,2.8143,2.8181,2.8256,2.8277,2.8288,2.8383,2.8428,2.8478,2.8479,2.8502,2.8512,2.8514,2.8518,2.8518,2.8517,2.8518,2.8519,2.8521,2.8521,2.8522,2.8522,0,2.789,2.7932,2.7949,2.8021,2.8056,2.809,2.815,2.8178,2.8211,2.8252,2.8299,2.8354,2.8411,2.8426,2.8458,2.8481,2.8486,2.8506,2.8525,2.8512,2.8514,2.8515,2.8517,2.8518,2.8519,2.852,0,0,2.7842,2.7945,2.795,2.7983,2.8058,2.8091,2.8127,2.8184,2.8206,2.8256,2.8288,2.835,2.837,2.8405,2.8442,2.8459,2.8457,2.8478,2.8481,2.8472,2.8485,2.8469,2.8468,2.8478,2.8478,2.8478,2.848,0,2.784,2.7908,2.7959,2.8007,2.8046,2.8098,2.8129,2.8178,2.8217,2.8256,2.8299,2.8342,2.8366,2.8387,2.8407,2.8453,2.8461,2.8454,2.8506,2.8508,2.8489,2.847,2.8452,2.8451,2.8481,2.8482,2.8482,0,2.7846,2.7895,2.7947,2.8018,2.8037,2.8064,2.8119,2.8156,2.8212,2.8239,2.8278,2.8316,2.8356,2.8371,2.8425,2.842,2.8444,2.847,2.8471,2.8478,2.8493,2.8475,2.8453,2.8452,2.8484,2.8484,2.8483,0,2.7805,2.7884,2.7925,2.7952,2.8036,2.8054,2.8089,2.8146,2.8176,2.8225,2.8245,2.8297,2.8325,2.8364,2.8415,2.8421,2.8464,2.8483,2.8487,2.8485,2.8493,2.8492,2.8474,2.8509,2.8509,2.8509,2.8509,0,2.7797,2.7826,2.7908,2.7933,2.7968,2.8026,2.8058,2.8098,2.8148,2.8181,2.8229,2.8259,2.8325,2.8363,2.8403,2.8441,2.8454,2.8476,2.8486,2.8472,2.8469,2.8488,2.849,2.851,2.851,2.851,2.8509,0,2.7756,2.7812,2.786,2.7936,2.7956,2.7978,2.8042,2.8068,2.811,2.8152,2.8165,2.8231,2.8278,2.8333,2.8397,2.8424,2.8459,2.8475,2.844,2.8446,2.8446,2.8445,2.844,2.8442,2.8476,2.8476,2.8475,0,2.7747,2.7771,2.785,2.7876,2.791,2.7952,2.7983,2.8042,2.8072,2.8138,2.8156,2.8207,2.825,2.8323,2.8376,2.8425,2.8442,2.8436,2.8449,2.8434,2.8441,2.8439,2.8441,2.8432,2.8432,2.8431,2.8431,0,2.7725,2.7752,2.7796,2.7849,2.7886,2.7931,2.7977,2.7996,2.8063,2.8095,2.8144,2.8178,2.8244,2.8294,2.835,2.8386,2.8419,2.8426,2.843,2.8415,2.8394,2.8405,2.843,2.8426,2.8427,2.8427,2.8427,2.8427,2.77,2.7724,2.7782,2.783,2.7871,2.7914,2.7942,2.7988,2.803,2.8089,2.8121,2.8169,2.8224,2.8303,2.8338,2.8376,2.8387,2.8392,2.8393,2.8393,2.8389,2.8388,2.8386,2.8386,2.8387,2.8387,2.8387,0,2.768,2.772,2.7763,2.7828,2.7865,2.7894,2.7947,2.7976,2.8018,2.8067,2.8109,2.8165,2.8213,2.827,2.8322,2.8341,2.8358,2.8353,2.8351,2.8359,2.8376,2.8368,2.8338,2.8338,2.8338,2.8338,2.8338,2.8338,2.7674,2.7715,2.7749,2.7811,2.7851,2.7899,2.7927,2.7966,2.8006,2.8066,2.8107,2.8144,2.8196,2.8252,2.8297,2.8313,2.8329,2.8319,2.8339,2.8354,2.8358,2.8362,2.8354,2.8322,2.8322,2.8319,2.8319,2.8319]}]]